Total_Precipitation_Accumulation
1.84 1.88 1.90 1.84 1.86 1.95 1.94 1.83 1.81 1.77 1.63 1.59 1.52 1.44 1.39 1.38 1.43 1.55 1.59 1.63 1.69 1.80 1.91 1.92 1.94 1.93 2.01 2.02 2.06 2.11 2.26 2.39 2.35 2.03 1.83 1.76 1.72 1.63 1.65 1.62 1.57 1.47 1.26
1.63 1.59 1.61 1.65 1.64 1.69 1.68 1.58 1.57 1.62 1.55 1.52 1.41 1.31 1.23 1.22 1.26 1.31 1.33 1.37 1.51 1.57 1.61 1.67 1.65 1.70 1.77 1.74 1.79 1.81 1.91 2.07 2.12 2.08 1.97 1.91 1.82 1.69 1.72 1.71 1.43 1.25 1.21
1.59 1.55 1.52 1.55 1.59 1.58 1.56 1.56 1.53 1.57 1.54 1.44 1.29 1.22 1.16 1.12 1.13 1.17 1.23 1.26 1.33 1.41 1.42 1.48 1.50 1.56 1.52 1.45 1.50 1.60 1.65 1.71 1.93 1.95 1.84 1.79 1.68 1.57 1.73 1.63 1.49 1.58 1.23
1.45 1.48 1.52 1.57 1.62 1.62 1.65 1.67 1.61 1.52 1.45 1.37 1.30 1.23 1.17 1.10 1.10 1.11 1.12 1.24 1.28 1.29 1.27 1.29 1.27 1.30 1.34 1.39 1.41 1.56 1.64 1.77 1.86 1.86 1.79 1.73 1.65 1.58 1.73 1.72 1.69 1.65 1.39
1.37 1.41 1.46 1.51 1.56 1.52 1.59 1.60 1.59 1.58 1.45 1.39 1.31 1.24 1.14 1.02 0.94 0.96 0.99 1.06 1.18 1.20 1.19 1.14 1.12 1.16 1.25 1.28 1.24 1.37 1.53 1.70 1.70 1.70 1.68 1.70 1.62 1.68 1.64 1.59 1.65 1.71 1.59
1.47 1.43 1.40 1.42 1.39 1.37 1.38 1.44 1.42 1.40 1.41 1.36 1.25 1.12 1.04 0.92 0.93 0.91 0.93 1.01 1.10 1.15 1.11 1.09 1.05 1.03 1.06 1.10 1.08 1.16 1.34 1.48 1.58 1.66 1.66 1.67 1.65 1.73 1.76 1.74 1.75 1.81 1.77
1.34 1.33 1.26 1.24 1.23 1.25 1.23 1.26 1.32 1.40 1.40 1.32 1.20 1.15 1.10 1.01 0.90 0.80 0.84 0.94 1.07 1.06 1.06 1.10 0.97 0.87 0.98 1.00 1.03 1.04 1.07 1.13 1.26 1.48 1.64 1.69 1.81 1.95 2.04 1.96 1.90 1.86 1.86
1.24 1.23 1.16 1.10 1.11 1.20 1.18 1.18 1.27 1.31 1.30 1.30 1.28 1.31 1.31 1.07 0.85 0.72 0.81 0.98 1.07 0.96 0.91 0.98 1.04 1.06 0.98 0.99 1.01 1.04 1.06 1.06 1.09 1.16 1.43 1.54 1.58 1.79 2.01 2.05 2.03 1.94 1.92
1.17 1.16 1.06 1.03 1.10 1.14 1.09 1.10 1.20 1.21 1.21 1.24 1.27 1.32 1.29 1.13 0.92 0.76 0.80 0.93 1.03 0.99 0.95 0.90 0.90 0.94 0.93 0.98 1.08 1.23 1.27 1.24 1.00 1.04 1.17 1.26 1.32 1.47 1.64 1.85 2.05 2.15 2.06
1.18 1.14 1.06 1.07 1.11 1.13 1.16 1.13 1.09 1.11 1.10 1.10 1.15 1.25 1.20 1.08 0.88 0.71 0.72 0.76 0.88 1.02 1.12 1.10 1.04 0.95 0.92 0.98 1.12 1.31 1.37 1.35 1.33 1.44 1.54 1.53 1.51 1.56 1.53 1.71 2.04 2.18 2.12
1.19 1.14 1.16 1.18 1.14 1.13 1.17 1.14 1.08 1.00 1.02 1.06 1.08 1.15 1.19 1.00 0.79 0.66 0.70 0.73 0.82 0.95 1.04 1.10 1.05 1.01 0.99 1.03 1.11 1.26 1.35 1.36 1.58 1.93 1.94 1.79 1.69 1.64 1.53 1.57 1.81 1.99 2.10
1.35 1.28 1.22 1.16 1.08 1.05 1.17 1.11 1.05 1.07 1.06 1.10 1.08 1.09 1.04 0.87 0.68 0.60 0.64 0.68 0.71 0.84 0.98 0.98 1.00 1.00 0.98 1.03 1.06 1.19 1.34 1.51 1.78 2.12 2.09 1.87 1.69 1.58 1.53 1.47 1.56 1.73 1.91
1.55 1.47 1.34 1.21 1.13 1.14 1.20 1.14 1.03 1.05 1.00 0.95 0.92 0.97 0.92 0.79 0.69 0.60 0.60 0.61 0.62 0.69 0.80 0.86 0.87 0.87 0.92 1.06 1.13 1.22 1.37 1.63 1.88 2.00 1.89 1.70 1.58 1.55 1.52 1.50 1.50 1.65 1.76
1.50 1.44 1.40 1.31 1.18 1.11 1.10 1.04 0.99 0.95 0.96 0.94 0.89 0.88 0.80 0.73 0.63 0.56 0.56 0.57 0.57 0.58 0.66 0.78 0.89 0.95 1.04 1.19 1.36 1.47 1.51 1.61 1.70 1.76 1.66 1.54 1.45 1.46 1.47 1.37 1.42 1.55 1.71
1.45 1.30 1.24 1.18 1.11 1.08 1.02 0.94 0.89 0.81 0.81 0.86 0.82 0.73 0.67 0.62 0.54 0.56 0.57 0.57 0.56 0.59 0.65 0.78 1.00 1.15 1.25 1.29 1.35 1.43 1.45 1.41 1.42 1.42 1.40 1.39 1.40 1.43 1.37 1.27 1.33 1.41 1.54
1.30 1.20 1.13 1.05 1.00 0.91 0.90 0.90 0.91 0.82 0.73 0.72 0.74 0.66 0.55 0.55 0.55 0.52 0.52 0.53 0.60 0.66 0.70 0.86 1.04 1.14 1.22 1.28 1.31 1.31 1.28 1.25 1.21 1.21 1.24 1.21 1.22 1.26 1.30 1.30 1.34 1.40 1.46
1.20 1.15 1.06 1.03 1.00 0.97 0.94 0.93 0.96 0.89 0.79 0.75 0.73 0.67 0.57 0.54 0.53 0.51 0.52 0.50 0.56 0.66 0.75 0.94 1.06 1.11 1.21 1.30 1.27 1.24 1.21 1.14 1.10 1.08 1.10 1.08 1.04 1.09 1.21 1.29 1.36 1.43 1.44
1.04 1.03 1.02 1.01 0.97 0.99 1.04 1.01 0.98 1.01 0.95 0.83 0.71 0.65 0.59 0.58 0.57 0.56 0.56 0.55 0.62 0.70 0.87 1.06 1.11 1.11 1.14 1.16 1.16 1.18 1.17 1.10 1.05 1.06 1.08 1.08 1.07 1.07 1.15 1.22 1.27 1.31 1.34
0.97 0.98 0.98 1.00 0.98 0.92 0.97 1.01 1.00 1.03 1.06 0.97 0.83 0.73 0.72 0.72 0.71 0.72 0.68 0.66 0.72 0.78 0.85 0.92 1.00 1.07 1.10 1.07 1.08 1.07 1.11 1.12 1.06 1.06 1.08 1.09 1.09 1.11 1.12 1.13 1.13 1.09 1.11
0.79 0.85 0.89 0.94 0.98 0.96 0.92 0.96 1.01 1.07 1.11 1.04 0.91 0.82 0.85 0.90 0.88 0.86 0.80 0.75 0.77 0.79 0.85 0.94 0.99 1.01 1.02 1.02 1.01 0.97 0.97 1.00 1.01 0.99 0.97 0.99 1.00 1.01 1.03 1.03 1.02 1.03 1.02
0.67 0.70 0.71 0.69 0.73 0.76 0.78 0.80 0.85 0.94 0.99 0.96 0.85 0.83 0.94 0.94 0.97 0.93 0.88 0.87 0.89 0.87 0.88 0.95 0.95 0.94 0.92 0.93 1.01 1.00 0.98 0.96 0.93 0.94 0.91 0.87 0.85 0.86 0.83 0.83 0.83 0.87 0.92
0.58 0.55 0.52 0.51 0.55 0.61 0.63 0.65 0.71 0.75 0.80 0.81 0.76 0.73 0.84 0.84 0.87 0.84 0.81 0.84 0.86 0.85 0.89 0.97 0.97 0.91 0.89 0.90 0.99 1.02 0.99 0.95 0.91 0.90 0.88 0.83 0.77 0.75 0.76 0.76 0.78 0.83 0.89
0.55 0.52 0.47 0.44 0.47 0.55 0.59 0.62 0.66 0.69 0.71 0.72 0.69 0.67 0.70 0.77 0.80 0.83 0.85 0.82 0.79 0.75 0.72 0.78 0.83 0.83 0.83 0.83 0.84 0.84 0.86 0.87 0.85 0.83 0.88 0.87 0.82 0.77 0.76 0.74 0.74 0.77 0.81
0.54 0.53 0.52 0.49 0.51 0.59 0.61 0.59 0.58 0.60 0.63 0.68 0.64 0.61 0.64 0.70 0.73 0.74 0.79 0.84 0.83 0.78 0.71 0.71 0.73 0.73 0.73 0.76 0.75 0.70 0.68 0.73 0.74 0.76 0.83 0.83 0.77 0.74 0.76 0.74 0.71 0.72 0.74
0.48 0.52 0.55 0.54 0.55 0.59 0.61 0.60 0.60 0.60 0.65 0.73 0.69 0.64 0.65 0.62 0.60 0.59 0.64 0.69 0.69 0.66 0.62 0.58 0.57 0.56 0.57 0.58 0.58 0.58 0.64 0.65 0.64 0.67 0.71 0.72 0.65 0.65 0.68 0.66 0.65 0.68 0.71
0.46 0.53 0.58 0.61 0.65 0.65 0.65 0.67 0.66 0.65 0.67 0.68 0.68 0.72 0.71 0.64 0.59 0.56 0.58 0.58 0.55 0.53 0.52 0.52 0.50 0.48 0.45 0.42 0.46 0.52 0.52 0.46 0.45 0.50 0.56 0.62 0.60 0.60 0.64 0.66 0.62 0.67 0.70